Weather in Palestine

United States     31°45′42″N   95°37′52″W
temp.,
°C
wind,
m/s
gust,
m/s
humid.,
%
clouds,
%
prec.,
mm/h
press.,
hPa
HPBL,
m
16 may, sun
sun1601:00+17sse41294100 0.1 1018388
04:00+17se3119894 0.0 1017307
07:00+18se4129636 0.4 1017388
10:00+20se5119299 0.1 1017527
13:00+21sse51195100 8.8 1016682
16:00+21sse41094100 17.3 1014478
19:00+20se5119786 27.9 1014572
22:00+20se61396100 1.8 1014558
17 may, mon
mon1701:00+20sse51397100 2.3 1013603
04:00+20sse51398100 2.0 1012694
07:00+20s31098100 8.5 1013661
10:00+21sse81498100 5.8 1012550
13:00+26s688280 6.3 10121017
16:00+27s457818 4.5 1011917
19:00+25sse47870 6.5 1011312
22:00+22se411950 0.1 1011349
18 may, tue
tue1801:00+21sse51496100 0.3 1013570
04:00+21sse51296100 0.0 1011682
07:00+22sse51192100 0.0 1011768
10:00+23se41094100 0.7 1013621
13:00+28sse687479 1.0 10111216
16:00+28sse7107772 1.1 10091179
19:00+25sse61382100 5.2 1008521
22:00+24sse81685100 0.3 1009926
19 may, wed
wed1901:00+23sse71590100 0.3 1010982
04:00+21s41396100 10.1 1011801
07:00+17se81886100 10.8 1012511
10:00+18se71490100 0.8 1014389
13:00+18ese6895100 15.8 1014155
16:00+19ese6993100 13.8 1014175
19:00+19sse4990100 14.4 1011247
22:00+18ene1191100 0.0 101514
20 may, thu
thu2001:00+18se41297100 0.1 1014421
04:00+20se51495100 0.1 1013552
07:00+20ese51396100 3.9 1015795
10:00+22ese51293100 0.8 10161017
13:00+24ese61088100 0.9 1016936
16:00+25e61087100 1.8 1015784
19:00+23ese71491100 5.9 1015709
22:00+22ese61693100 0.9 1016729